Time,TemperatureF,DewpointF,PressureIn,WindDirection,WindDirectionDegrees,WindSpeedMPH,WindSpeedGustMPH,Humidity,HourlyPrecipIn,Conditions,Clouds,dailyrainin,SolarRadiationWatts/m^2,SoftwareType,DateUTC
2013-06-14 00:22:00,72.0,-26.0,-100.00,NE,47,19.0,38.0,0,0.00,,,0.00,0.000000,,2013-06-14 10:22:00,
2013-06-14 00:34:00,72.0,-26.0,-100.00,NE,47,19.0,38.0,0,0.00,,,0.00,0.000000,,2013-06-14 10:34:00,
2013-06-14 00:43:00,72.0,-26.0,-100.00,NE,47,19.0,38.0,0,0.00,,,0.00,0.000000,,2013-06-14 10:43:00,
2013-06-14 00:52:00,72.0,-26.0,-100.00,East,93,19.0,40.0,0,0.00,,,0.00,0.000000,,2013-06-14 10:52:00,
2013-06-14 01:22:00,72.0,-26.0,-100.00,East,93,19.0,40.0,0,0.00,,,0.00,0.000000,,2013-06-14 11:22:00,
2013-06-14 01:32:00,72.0,-26.0,-100.00,East,93,19.0,40.0,0,0.00,,,0.00,0.000000,,2013-06-14 11:32:00,
2013-06-14 01:43:00,72.0,-26.0,-100.00,East,93,19.0,40.0,0,0.00,,,0.00,0.000000,,2013-06-14 11:43:00,
2013-06-14 01:52:00,69.0,-28.0,-100.00,South,186,22.0,40.0,0,0.00,,,0.00,0.000000,,2013-06-14 11:52:00,
2013-06-14 02:22:00,69.0,-28.0,-100.00,South,186,22.0,40.0,0,0.00,,,0.00,0.000000,,2013-06-14 12:22:00,
2013-06-14 02:32:00,69.0,-28.0,-100.00,South,186,22.0,40.0,0,0.00,,,0.00,0.000000,,2013-06-14 12:32:00,
2013-06-14 02:43:00,69.0,-28.0,-100.00,South,186,22.0,40.0,0,0.00,,,0.00,0.000000,,2013-06-14 12:43:00,
2013-06-14 02:52:00,69.0,-28.0,-100.00,North,358,22.0,42.0,0,0.00,,,0.00,0.000000,,2013-06-14 12:52:00,
2013-06-14 03:22:00,69.0,-28.0,-100.00,North,358,22.0,42.0,0,0.00,,,0.00,0.000000,,2013-06-14 13:22:00,
2013-06-14 03:33:00,69.0,-28.0,-100.00,North,358,22.0,42.0,0,0.00,,,0.00,0.000000,,2013-06-14 13:33:00,
2013-06-14 03:43:00,69.0,-28.0,-100.00,North,358,22.0,42.0,0,0.00,,,0.00,0.000000,,2013-06-14 13:43:00,
2013-06-14 03:52:00,69.0,-28.0,-100.00,WNW,293,23.0,44.0,0,0.00,,,0.00,0.000000,,2013-06-14 13:52:00,
2013-06-14 04:11:00,69.0,-28.0,-100.00,WNW,293,23.0,44.0,0,0.00,,,0.00,0.000000,,2013-06-14 14:11:00,
2013-06-14 04:22:00,69.0,-28.0,-100.00,WNW,293,23.0,44.0,0,0.00,,,0.00,0.000000,,2013-06-14 14:22:00,
2013-06-14 04:34:00,69.0,-28.0,-100.00,WNW,293,23.0,44.0,0,0.00,,,0.00,0.000000,,2013-06-14 14:34:00,
2013-06-14 04:43:00,69.0,-28.0,-100.00,WNW,293,23.0,44.0,0,0.00,,,0.00,0.000000,,2013-06-14 14:43:00,
2013-06-14 04:52:00,69.0,-28.0,-100.00,NE,49,16.0,36.0,0,0.00,,,0.00,0.000000,,2013-06-14 14:52:00,
2013-06-14 05:11:00,69.0,-28.0,-100.00,NE,49,16.0,36.0,0,0.00,,,0.00,0.000000,,2013-06-14 15:11:00,
2013-06-14 05:22:00,69.0,-28.0,-100.00,NE,49,16.0,36.0,0,0.00,,,0.00,0.000000,,2013-06-14 15:22:00,
2013-06-14 05:33:00,69.0,-28.0,-100.00,NE,49,16.0,36.0,0,0.00,,,0.00,0.000000,,2013-06-14 15:33:00,
2013-06-14 05:43:00,69.0,-28.0,-100.00,NE,49,16.0,36.0,0,0.00,,,0.00,0.000000,,2013-06-14 15:43:00,
2013-06-14 05:52:00,69.0,-28.0,-100.00,NE,40,10.0,31.0,0,0.00,,,0.00,0.000000,,2013-06-14 15:52:00,
2013-06-14 06:22:00,69.0,-28.0,-100.00,NE,40,10.0,31.0,0,0.00,,,0.00,0.000000,,2013-06-14 16:22:00,
2013-06-14 06:32:00,69.0,-28.0,-100.00,NE,40,10.0,31.0,0,0.00,,,0.00,0.000000,,2013-06-14 16:32:00,
2013-06-14 06:43:00,69.0,-28.0,-100.00,NE,40,10.0,31.0,0,0.00,,,0.00,0.000000,,2013-06-14 16:43:00,
2013-06-14 06:52:00,68.0,-28.0,-100.00,NNE,29,8.0,15.0,0,0.00,,,0.00,3.000000,,2013-06-14 16:52:00,
2013-06-14 07:11:00,68.0,-28.0,-100.00,NNE,29,8.0,15.0,0,0.00,,,0.00,3.000000,,2013-06-14 17:11:00,
2013-06-14 07:22:00,68.0,-28.0,-100.00,NNE,29,8.0,15.0,0,0.00,,,0.00,3.000000,,2013-06-14 17:22:00,
2013-06-14 07:34:00,68.0,-28.0,-100.00,NNE,29,8.0,15.0,0,0.00,,,0.00,3.000000,,2013-06-14 17:34:00,
2013-06-14 07:43:00,68.0,-28.0,-100.00,NNE,29,8.0,15.0,0,0.00,,,0.00,3.000000,,2013-06-14 17:43:00,
2013-06-14 07:52:00,73.0,-25.0,-100.00,NE,37,7.0,16.0,0,0.00,,,0.00,177.000000,,2013-06-14 17:52:00,
2013-06-14 08:22:00,73.0,-25.0,-100.00,NE,37,7.0,16.0,0,0.00,,,0.00,177.000000,,2013-06-14 18:22:00,
2013-06-14 08:32:00,73.0,-25.0,-100.00,NE,37,7.0,16.0,0,0.00,,,0.00,177.000000,,2013-06-14 18:32:00,
2013-06-14 08:42:00,73.0,-25.0,-100.00,NE,37,7.0,16.0,0,0.00,,,0.00,177.000000,,2013-06-14 18:42:00,
2013-06-14 08:52:00,77.0,-23.0,-100.00,NNE,32,8.0,17.0,0,0.00,,,0.00,378.000000,,2013-06-14 18:52:00,
2013-06-14 09:21:00,77.0,-23.0,-100.00,NNE,32,8.0,17.0,0,0.00,,,0.00,378.000000,,2013-06-14 19:21:00,
2013-06-14 09:32:00,77.0,-23.0,-100.00,NNE,32,8.0,17.0,0,0.00,,,0.00,378.000000,,2013-06-14 19:32:00,
2013-06-14 09:43:00,77.0,-23.0,-100.00,NNE,32,8.0,17.0,0,0.00,,,0.00,378.000000,,2013-06-14 19:43:00,
2013-06-14 09:52:00,77.0,-23.0,-100.00,SSE,150,19.0,23.0,0,0.00,,,0.00,554.000000,,2013-06-14 19:52:00,
2013-06-14 10:11:00,77.0,-23.0,-100.00,SSE,150,19.0,23.0,0,0.00,,,0.00,554.000000,,2013-06-14 20:11:00,
2013-06-14 10:22:00,77.0,-23.0,-100.00,SSE,150,19.0,23.0,0,0.00,,,0.00,554.000000,,2013-06-14 20:22:00,
2013-06-14 10:33:00,77.0,-23.0,-100.00,SSE,150,19.0,23.0,0,0.00,,,0.00,554.000000,,2013-06-14 20:33:00,
2013-06-14 10:43:00,77.0,-23.0,-100.00,SSE,150,19.0,23.0,0,0.00,,,0.00,554.000000,,2013-06-14 20:43:00,
2013-06-14 10:52:00,77.0,-23.0,-100.00,NNE,30,9.0,35.0,0,0.00,,,0.00,668.000000,,2013-06-14 20:52:00,
2013-06-14 11:11:00,77.0,-23.0,-100.00,NNE,30,9.0,35.0,0,0.00,,,0.00,668.000000,,2013-06-14 21:11:00,
2013-06-14 11:22:00,77.0,-23.0,-100.00,NNE,30,9.0,35.0,0,0.00,,,0.00,668.000000,,2013-06-14 21:22:00,
2013-06-14 11:34:00,77.0,-23.0,-100.00,NNE,30,9.0,35.0,0,0.00,,,0.00,668.000000,,2013-06-14 21:34:00,
2013-06-14 11:42:00,77.0,-23.0,-100.00,NNE,30,9.0,35.0,0,0.00,,,0.00,668.000000,,2013-06-14 21:42:00,
2013-06-14 11:52:00,76.0,-23.0,-100.00,East,83,20.0,35.0,0,0.00,,,0.00,717.000000,,2013-06-14 21:52:00,
2013-06-14 12:22:00,76.0,-23.0,-100.00,East,83,20.0,35.0,0,0.00,,,0.00,717.000000,,2013-06-14 22:22:00,
2013-06-14 12:33:00,76.0,-23.0,-100.00,East,83,20.0,35.0,0,0.00,,,0.00,717.000000,,2013-06-14 22:33:00,
2013-06-14 12:43:00,76.0,-23.0,-100.00,East,83,20.0,35.0,0,0.00,,,0.00,717.000000,,2013-06-14 22:43:00,
2013-06-14 12:52:00,76.0,-23.0,-100.00,SE,144,20.0,37.0,0,0.00,,,0.00,406.000000,,2013-06-14 22:52:00,
2013-06-14 13:22:00,76.0,-23.0,-100.00,SE,144,20.0,37.0,0,0.00,,,0.00,406.000000,,2013-06-14 23:22:00,
2013-06-14 13:33:00,76.0,-23.0,-100.00,SE,144,20.0,37.0,0,0.00,,,0.00,406.000000,,2013-06-14 23:33:00,
2013-06-14 13:43:00,76.0,-23.0,-100.00,SE,144,20.0,37.0,0,0.00,,,0.00,406.000000,,2013-06-14 23:43:00,
2013-06-14 13:52:00,78.0,-22.0,-100.00,SSE,167,20.0,40.0,0,0.00,,,0.00,610.000000,,2013-06-14 23:52:00,
2013-06-14 14:11:00,78.0,-22.0,-100.00,SSE,167,20.0,40.0,0,0.00,,,0.00,610.000000,,2013-06-15 00:11:00,
2013-06-14 14:22:00,78.0,-22.0,-100.00,SSE,167,20.0,40.0,0,0.00,,,0.00,610.000000,,2013-06-15 00:22:00,
2013-06-14 14:33:00,78.0,-22.0,-100.00,SSE,167,20.0,40.0,0,0.00,,,0.00,610.000000,,2013-06-15 00:33:00,
2013-06-14 14:43:00,78.0,-22.0,-100.00,SSE,167,20.0,40.0,0,0.00,,,0.00,610.000000,,2013-06-15 00:43:00,
2013-06-14 14:52:00,78.0,-22.0,-100.00,SW,218,21.0,39.0,0,0.00,,,0.00,674.000000,,2013-06-15 00:52:00,
2013-06-14 15:11:00,78.0,-22.0,-100.00,SW,218,21.0,39.0,0,0.00,,,0.00,674.000000,,2013-06-15 01:11:00,
2013-06-14 15:22:00,78.0,-22.0,-100.00,SW,218,21.0,39.0,0,0.00,,,0.00,674.000000,,2013-06-15 01:22:00,
2013-06-14 15:33:00,78.0,-22.0,-100.00,SW,218,21.0,39.0,0,0.00,,,0.00,674.000000,,2013-06-15 01:33:00,
2013-06-14 15:42:00,78.0,-22.0,-100.00,SW,218,21.0,39.0,0,0.00,,,0.00,674.000000,,2013-06-15 01:42:00,
2013-06-14 15:52:00,77.0,-23.0,-100.00,North,4,20.0,45.0,0,0.00,,,0.00,823.000000,,2013-06-15 01:52:00,
2013-06-14 16:22:00,77.0,-23.0,-100.00,North,4,20.0,45.0,0,0.00,,,0.00,823.000000,,2013-06-15 02:22:00,
2013-06-14 16:33:00,77.0,-23.0,-100.00,North,4,20.0,45.0,0,0.00,,,0.00,823.000000,,2013-06-15 02:33:00,
2013-06-14 16:43:00,77.0,-23.0,-100.00,North,4,20.0,45.0,0,0.00,,,0.00,823.000000,,2013-06-15 02:43:00,
2013-06-14 16:52:00,74.0,-25.0,-100.00,SE,130,20.0,36.0,0,0.00,,,0.00,534.000000,,2013-06-15 02:52:00,
2013-06-14 17:23:00,74.0,-25.0,-100.00,SE,130,20.0,36.0,0,0.00,,,0.00,534.000000,,2013-06-15 03:23:00,
2013-06-14 17:32:00,74.0,-25.0,-100.00,SE,130,20.0,36.0,0,0.00,,,0.00,534.000000,,2013-06-15 03:32:00,
2013-06-14 17:43:00,74.0,-25.0,-100.00,SE,130,20.0,36.0,0,0.00,,,0.00,534.000000,,2013-06-15 03:43:00,
2013-06-14 17:52:00,77.0,-23.0,-100.00,ESE,118,21.0,38.0,0,0.00,,,0.00,163.000000,,2013-06-15 03:52:00,
2013-06-14 18:22:00,77.0,-23.0,-100.00,ESE,118,21.0,38.0,0,0.00,,,0.00,163.000000,,2013-06-15 04:22:00,
2013-06-14 18:34:00,77.0,-23.0,-100.00,ESE,118,21.0,38.0,0,0.00,,,0.00,163.000000,,2013-06-15 04:34:00,
2013-06-14 18:43:00,77.0,-23.0,-100.00,ESE,118,21.0,38.0,0,0.00,,,0.00,163.000000,,2013-06-15 04:43:00,
2013-06-14 18:52:00,74.0,-25.0,-100.00,ESE,110,21.0,35.0,0,0.00,,,0.00,122.000000,,2013-06-15 04:52:00,
2013-06-14 19:12:00,74.0,-25.0,-100.00,ESE,110,21.0,35.0,0,0.00,,,0.00,122.000000,,2013-06-15 05:12:00,
2013-06-14 19:22:00,74.0,-25.0,-100.00,ESE,110,21.0,35.0,0,0.00,,,0.00,122.000000,,2013-06-15 05:22:00,
2013-06-14 19:34:00,74.0,-25.0,-100.00,ESE,110,21.0,35.0,0,0.00,,,0.00,122.000000,,2013-06-15 05:34:00,
2013-06-14 19:42:00,74.0,-25.0,-100.00,ESE,110,21.0,35.0,0,0.00,,,0.00,122.000000,,2013-06-15 05:42:00,
2013-06-14 19:52:00,71.0,-26.0,-100.00,East,101,21.0,37.0,0,0.00,,,0.00,51.000000,,2013-06-15 05:52:00,
2013-06-14 20:12:00,71.0,-26.0,-100.00,East,101,21.0,37.0,0,0.00,,,0.00,51.000000,,2013-06-15 06:12:00,
2013-06-14 20:24:00,71.0,-26.0,-100.00,East,101,21.0,37.0,0,0.00,,,0.00,51.000000,,2013-06-15 06:24:00,
2013-06-14 20:33:00,71.0,-26.0,-100.00,East,101,21.0,37.0,0,0.00,,,0.00,51.000000,,2013-06-15 06:33:00,
2013-06-14 20:43:00,71.0,-26.0,-100.00,East,101,21.0,37.0,0,0.00,,,0.00,51.000000,,2013-06-15 06:43:00,
2013-06-14 20:52:00,70.0,-27.0,-100.00,NNE,22,23.0,35.0,0,0.00,,,0.00,1.000000,,2013-06-15 06:52:00,
2013-06-14 21:23:00,70.0,-27.0,-100.00,NNE,22,23.0,35.0,0,0.00,,,0.00,1.000000,,2013-06-15 07:23:00,
2013-06-14 21:33:00,70.0,-27.0,-100.00,NNE,22,23.0,35.0,0,0.00,,,0.00,1.000000,,2013-06-15 07:33:00,
2013-06-14 21:43:00,70.0,-27.0,-100.00,NNE,22,23.0,35.0,0,0.00,,,0.00,1.000000,,2013-06-15 07:43:00,
2013-06-14 21:52:00,70.0,-27.0,-100.00,WSW,253,20.0,37.0,0,0.00,,,0.00,0.000000,,2013-06-15 07:52:00,
2013-06-14 22:22:00,70.0,-27.0,-100.00,WSW,253,20.0,37.0,0,0.00,,,0.00,0.000000,,2013-06-15 08:22:00,
2013-06-14 22:33:00,70.0,-27.0,-100.00,WSW,253,20.0,37.0,0,0.00,,,0.00,0.000000,,2013-06-15 08:33:00,
2013-06-14 22:42:00,70.0,-27.0,-100.00,WSW,253,20.0,37.0,0,0.00,,,0.00,0.000000,,2013-06-15 08:42:00,
2013-06-14 22:52:00,70.0,-27.0,-100.00,ESE,103,18.0,39.0,0,0.00,,,0.00,0.000000,,2013-06-15 08:52:00,
2013-06-14 23:22:00,70.0,-27.0,-100.00,ESE,103,18.0,39.0,0,0.00,,,0.00,0.000000,,2013-06-15 09:22:00,
2013-06-14 23:33:00,70.0,-27.0,-100.00,ESE,103,18.0,39.0,0,0.00,,,0.00,0.000000,,2013-06-15 09:33:00,
2013-06-14 23:43:00,70.0,-27.0,-100.00,ESE,103,18.0,39.0,0,0.00,,,0.00,0.000000,,2013-06-15 09:43:00,
2013-06-14 23:52:00,70.0,-27.0,-100.00,SE,138,16.0,26.0,0,0.00,,,0.00,0.000000,,2013-06-15 09:52:00,